Location: Songkhla
(7.2000°N, 100.6000°E)
Time: 03:40:47
(UTC+07:00)

BRICSAT 2 - Pass Details

Date: 17 June 2021
Orbit: 295 x 638 km, 28.5° (Epoch: 28 July)

Event Time Altitude Azimuth Distance (km) Brightness Sun altitude
Rises 23:33:49 0° 290° (WNW) 2,929 - -57.5°
Reaches altitude 10° 23:36:14 10° 284° (WNW) 2,043 - -57.7°
Maximum altitude 23:40:54 47° 211° (SSW) 861 - -58.0°
Drops below altitude 10° 23:45:34 10° 137° (SE) 2,038 - -58.4°
Sets 23:47:58 0° 131° (SE) 2,921 - -58.5°
